| time (UTC) | temp F | wind direction | speed MPH | gust MPH | rain 1hr in | rain 24hr in | rain mn in | humidity % | barometer mb |
| 20260831140541 | 64 | 12 | 13.0 | 23.0 | 0.00 | 0.00 | 0.00 | 59 | 1026.3 |
| 20260831140052 | 64 | 31 | 12.0 | 23.0 | 0.00 | 0.00 | 0.00 | 59 | 1026.3 |
| 20260831135542 | 64 | 34 | 14.0 | 23.0 | 0.00 | 0.00 | 0.00 | 59 | 1026.3 |
| 20260831135041 | 64 | 318 | 12.0 | 21.0 | 0.00 | 0.00 | 0.00 | 59 | 1026.4 |
| 20260831134556 | 63 | 348 | 12.0 | 21.0 | 0.00 | 0.00 | 0.00 | 60 | 1026.4 |
| 20260831134041 | 63 | 336 | 11.0 | 20.0 | 0.00 | 0.00 | 0.00 | 59 | 1026.3 |
| 20260831133541 | 63 | 32 | 11.0 | 17.0 | 0.00 | 0.00 | 0.00 | 58 | 1026.3 |
| 20260831133050 | 64 | 19 | 10.0 | 19.0 | 0.00 | 0.00 | 0.00 | 58 | 1026.3 |
| 20260831132541 | 64 | 355 | 10.0 | 20.0 | 0.00 | 0.00 | 0.00 | 58 | 1026.4 |
| 20260831132041 | 63 | 355 | 11.0 | 20.0 | 0.00 | 0.00 | 0.00 | 58 | 1026.0 |
| 20260831131559 | 63 | 19 | 10.0 | 20.0 | 0.00 | 0.00 | 0.00 | 58 | 1025.9 |
| 20260831131043 | 63 | 330 | 12.0 | 19.0 | 0.00 | 0.00 | 0.00 | 59 | 1025.9 |
| 20260831130546 | 63 | 333 | 11.0 | 20.0 | 0.00 | 0.00 | 0.00 | 58 | 1026.0 |
| 20260831130059 | 63 | 331 | 13.0 | 20.0 | 0.00 | 0.00 | 0.00 | 58 | 1025.9 |
| 20260831125542 | 63 | 360 | 12.0 | 21.0 | 0.00 | 0.00 | 0.00 | 57 | 1025.8 |
| 20260831125042 | 64 | 13 | 10.0 | 21.0 | 0.00 | 0.00 | 0.00 | 57 | 1025.7 |
| 20260831124600 | 64 | 352 | 12.0 | 21.0 | 0.00 | 0.00 | 0.00 | 56 | 1025.6 |
| 20260831124041 | 64 | 352 | 11.0 | 22.0 | 0.00 | 0.00 | 0.00 | 56 | 1025.3 |
| 20260831123541 | 64 | 352 | 12.0 | 22.0 | 0.00 | 0.00 | 0.00 | 56 | 1025.2 |
| 20260831123100 | 64 | 329 | 12.0 | 21.0 | 0.00 | 0.00 | 0.00 | 55 | 1025.2 |
| 20260831122541 | 64 | 327 | 13.0 | 22.0 | 0.00 | 0.00 | 0.00 | 55 | 1025.1 |
| 20260831122041 | 64 | 352 | 12.0 | 22.0 | 0.00 | 0.00 | 0.00 | 54 | 1024.9 |
| 20260831121556 | 64 | 360 | 12.0 | 21.0 | 0.00 | 0.00 | 0.00 | 53 | 1025.0 |
| 20260831121042 | 64 | 341 | 12.0 | 21.0 | 0.00 | 0.00 | 0.00 | 54 | 1025.1 |
| 20260831120542 | 64 | 346 | 11.0 | 19.0 | 0.00 | 0.00 | 0.00 | 54 | 1025.1 |
| 20260831120056 | 64 | 360 | 12.0 | 19.0 | 0.00 | 0.00 | 0.00 | 54 | 1025.1 |
| 20260831115542 | 64 | 352 | 12.0 | 17.0 | 0.00 | 0.00 | 0.00 | 55 | 1025.3 |
| 20260831115041 | 64 | 322 | 10.0 | 18.0 | 0.00 | 0.00 | 0.00 | 55 | 1025.3 |
| 20260831114556 | 63 | 315 | 11.0 | 18.0 | 0.00 | 0.00 | 0.00 | 56 | 1025.2 |
| 20260831114042 | 63 | 308 | 9.0 | 16.0 | 0.00 | 0.00 | 0.00 | 56 | 1025.1 |
| 20260831113543 | 63 | 306 | 9.0 | 16.0 | 0.00 | 0.00 | 0.00 | 56 | 1025.0 |
| 20260831113056 | 64 | 318 | 9.0 | 14.0 | 0.00 | 0.00 | 0.00 | 55 | 1025.0 |
| 20260831112545 | 64 | 345 | 9.0 | 13.0 | 0.00 | 0.00 | 0.00 | 55 | 1024.7 |
| 20260831112042 | 64 | 23 | 9.0 | 13.0 | 0.00 | 0.00 | 0.00 | 55 | 1024.6 |
| 20260831111619 | 64 | 344 | 6.0 | 13.0 | 0.00 | 0.00 | 0.00 | 55 | 1024.7 |
| 20260831111042 | 64 | 346 | 6.0 | 15.0 | 0.00 | 0.00 | 0.00 | 54 | 1024.5 |
| 20260831110542 | 64 | 19 | 8.0 | 15.0 | 0.00 | 0.00 | 0.00 | 54 | 1024.6 |
| 20260831110056 | 64 | 355 | 8.0 | 16.0 | 0.00 | 0.00 | 0.00 | 54 | 1024.6 |
| 20260831105544 | 64 | 340 | 10.0 | 19.0 | 0.00 | 0.00 | 0.00 | 54 | 1024.7 |
| 20260831105045 | 64 | 360 | 9.0 | 19.0 | 0.00 | 0.00 | 0.00 | 54 | 1024.6 |
| 20260831104606 | 64 | 349 | 10.0 | 19.0 | 0.00 | 0.00 | 0.00 | 54 | 1024.7 |
| 20260831104042 | 64 | 323 | 10.0 | 21.0 | 0.00 | 0.00 | 0.00 | 54 | 1024.7 |
| 20260831103541 | 64 | 30 | 12.0 | 21.0 | 0.00 | 0.00 | 0.00 | 54 | 1024.6 |
| 20260831103102 | 64 | 350 | 11.0 | 21.0 | 0.00 | 0.00 | 0.00 | 54 | 1024.6 |
| 20260831102542 | 64 | 343 | 9.0 | 18.0 | 0.00 | 0.00 | 0.00 | 54 | 1024.6 |
| 20260831102041 | 64 | 352 | 11.0 | 18.0 | 0.00 | 0.00 | 0.00 | 54 | 1024.6 |
| 20260831101602 | 64 | 319 | 11.0 | 19.0 | 0.00 | 0.00 | 0.00 | 54 | 1024.5 |
| 20260831101042 | 64 | 349 | 10.0 | 19.0 | 0.00 | 0.00 | 0.00 | 54 | 1024.4 |
| 20260831100542 | 64 | 331 | 11.0 | 19.0 | 0.00 | 0.00 | 0.00 | 55 | 1024.4 |
| 20260831100057 | 64 | 352 | 10.0 | 21.0 | 0.00 | 0.00 | 0.00 | 55 | 1024.5 |
| 20260831095541 | 64 | 311 | 10.0 | 21.0 | 0.00 | 0.00 | 0.00 | 55 | 1024.3 |
| 20260831095042 | 64 | 321 | 12.0 | 20.0 | 0.00 | 0.00 | 0.00 | 55 | 1024.2 |
| 20260831094607 | 64 | 5 | 12.0 | 20.0 | 0.00 | 0.00 | 0.00 | 54 | 1024.1 |
| 20260831094042 | 65 | 342 | 12.0 | 22.0 | 0.00 | 0.00 | 0.00 | 54 | 1024.1 |
| 20260831093541 | 65 | 342 | 11.0 | 22.0 | 0.00 | 0.00 | 0.00 | 54 | 1024.1 |
| 20260831093052 | 65 | 344 | 11.0 | 20.0 | 0.00 | 0.00 | 0.00 | 54 | 1024.1 |
| 20260831092542 | 65 | 339 | 12.0 | 20.0 | 0.00 | 0.00 | 0.00 | 54 | 1024.2 |
| 20260831092042 | 65 | 17 | 12.0 | 20.0 | 0.00 | 0.00 | 0.00 | 53 | 1024.0 |
| 20260831091605 | 65 | 333 | 10.0 | 20.0 | 0.00 | 0.00 | 0.00 | 53 | 1024.1 |
| 20260831091042 | 65 | 352 | 10.0 | 20.0 | 0.00 | 0.00 | 0.00 | 53 | 1024.0 |
| 20260831090542 | 66 | 24 | 11.0 | 19.0 | 0.00 | 0.00 | 0.00 | 53 | 1024.0 |
| 20260831085546 | 66 | 349 | 13.0 | 19.0 | 0.00 | 0.00 | 0.00 | 52 | 1024.0 |
| 20260831085042 | 66 | 350 | 11.0 | 19.0 | 0.00 | 0.00 | 0.00 | 52 | 1024.0 |
| 20260831084653 | 66 | 328 | 11.0 | 19.0 | 0.00 | 0.00 | 0.00 | 52 | 1024.1 |
| 20260831084042 | 66 | 11 | 11.0 | 22.0 | 0.00 | 0.00 | 0.00 | 52 | 1024.2 |
| 20260831083541 | 66 | 315 | 13.0 | 22.0 | 0.00 | 0.00 | 0.00 | 52 | 1024.1 |
| 20260831083106 | 66 | 326 | 11.0 | 19.0 | 0.00 | 0.00 | 0.00 | 52 | 1024.1 |
| 20260831082541 | 66 | 352 | 11.0 | 18.0 | 0.00 | 0.00 | 0.00 | 52 | 1024.0 |
| 20260831082041 | 66 | 346 | 10.0 | 18.0 | 0.00 | 0.00 | 0.00 | 52 | 1024.1 |
| 20260831081602 | 66 | 352 | 11.0 | 18.0 | 0.00 | 0.00 | 0.00 | 52 | 1024.2 |
| 20260831081042 | 66 | 343 | 11.0 | 20.0 | 0.00 | 0.00 | 0.00 | 52 | 1024.2 |
| 20260831080542 | 67 | 318 | 12.0 | 20.0 | 0.00 | 0.00 | 0.00 | 52 | 1024.2 |
| 20260831080055 | 67 | 318 | 12.0 | 18.0 | 0.00 | 0.00 | 0.00 | 52 | 1024.3 |
| 20260831075545 | 67 | 35 | 11.0 | 17.0 | 0.00 | 0.00 | 0.00 | 52 | 1024.3 |
| 20260831075042 | 67 | 348 | 7.0 | 16.0 | 0.00 | 0.00 | 0.00 | 52 | 1024.4 |
| 20260831074555 | 67 | 346 | 9.0 | 16.0 | 0.00 | 0.00 | 0.00 | 51 | 1024.4 |
| 20260831074042 | 67 | 5 | 8.0 | 14.0 | 0.00 | 0.00 | 0.00 | 51 | 1024.4 |
| 20260831073542 | 67 | 30 | 8.0 | 15.0 | 0.00 | 0.00 | 0.00 | 51 | 1024.4 |
| 20260831073057 | 67 | 348 | 8.0 | 15.0 | 0.00 | 0.00 | 0.00 | 51 | 1024.4 |
| 20260831072541 | 67 | 344 | 8.0 | 16.0 | 0.00 | 0.00 | 0.00 | 50 | 1024.2 |
| 20260831072041 | 67 | 342 | 7.0 | 16.0 | 0.00 | 0.00 | 0.00 | 50 | 1024.3 |
| 20260831071551 | 67 | 352 | 9.0 | 16.0 | 0.00 | 0.00 | 0.00 | 50 | 1024.3 |
| 20260831071042 | 68 | 346 | 7.0 | 15.0 | 0.00 | 0.00 | 0.00 | 49 | 1024.4 |
| 20260831070542 | 68 | 21 | 8.0 | 16.0 | 0.00 | 0.00 | 0.00 | 49 | 1024.3 |
| 20260831070058 | 68 | 14 | 10.0 | 16.0 | 0.00 | 0.00 | 0.00 | 49 | 1024.4 |
| 20260831065542 | 68 | 355 | 8.0 | 16.0 | 0.00 | 0.00 | 0.00 | 49 | 1024.3 |
| 20260831065041 | 68 | 24 | 9.0 | 19.0 | 0.00 | 0.00 | 0.00 | 49 | 1024.3 |
| 20260831064554 | 68 | 360 | 11.0 | 19.0 | 0.00 | 0.00 | 0.00 | 48 | 1024.2 |
| 20260831064041 | 68 | 24 | 9.0 | 20.0 | 0.00 | 0.00 | 0.00 | 47 | 1024.1 |
| 20260831063541 | 69 | 42 | 11.0 | 20.0 | 0.00 | 0.00 | 0.00 | 46 | 1024.0 |
| 20260831063051 | 69 | 5 | 11.0 | 20.0 | 0.00 | 0.00 | 0.00 | 45 | 1024.0 |
| 20260831062541 | 70 | 40 | 11.0 | 18.0 | 0.00 | 0.00 | 0.00 | 43 | 1024.0 |
| 20260831062042 | 70 | 338 | 9.0 | 16.0 | 0.00 | 0.00 | 0.00 | 41 | 1024.0 |
| 20260831061606 | 71 | 17 | 4.0 | 8.0 | 0.00 | 0.00 | 0.00 | 40 | 1023.7 |
| 20260831061042 | 71 | 50 | 4.0 | 6.0 | 0.00 | 0.00 | 0.00 | 40 | 1023.6 |
| 20260831060541 | 71 | 40 | 4.0 | 6.0 | 0.00 | 0.00 | 0.00 | 39 | 1023.6 |
| 20260831060058 | 71 | 36 | 4.0 | 6.0 | 0.00 | 0.00 | 0.00 | 39 | 1023.6 |
| 20260831055542 | 71 | 53 | 4.0 | 6.0 | 0.00 | 0.00 | 0.00 | 39 | 1023.6 |
| 20260831055042 | 71 | 38 | 3.0 | 6.0 | 0.00 | 0.00 | 0.00 | 39 | 1023.7 |
| 20260831054554 | 71 | 35 | 3.0 | 5.0 | 0.00 | 0.00 | 0.00 | 40 | 1023.7 |
| 20260831054044 | 71 | 26 | 3.0 | 5.0 | 0.00 | 0.00 | 0.00 | 40 | 1023.7 |
| 20260831053542 | 71 | 38 | 3.0 | 5.0 | 0.00 | 0.00 | 0.00 | 41 | 1023.7 |
| 20260831053052 | 71 | 38 | 2.0 | 5.0 | 0.00 | 0.00 | 0.00 | 42 | 1023.7 |
| 20260831052544 | 70 | 40 | 3.0 | 4.0 | 0.00 | 0.00 | 0.00 | 42 | 1023.6 |
| 20260831052041 | 70 | 32 | 3.0 | 4.0 | 0.00 | 0.00 | 0.00 | 42 | 1023.5 |
| 20260831051548 | 70 | 325 | 2.0 | 3.0 | 0.00 | 0.00 | 0.00 | 43 | 1023.7 |
| 20260831051042 | 70 | 325 | 2.0 | 3.0 | 0.00 | 0.00 | 0.00 | 43 | 1023.7 |
| 20260831050541 | 70 | 325 | 1.0 | 3.0 | 0.00 | 0.00 | 0.00 | 43 | 1023.7 |
| 20260831050112 | 70 | 325 | 1.0 | 3.0 | 0.00 | 0.00 | 0.00 | 44 | 1023.7 |
| 20260831045542 | 71 | 325 | 0.0 | 2.0 | 0.00 | 0.00 | 0.00 | 43 | 1023.6 |
| 20260831045042 | 71 | 0 | 0.0 | 2.0 | 0.00 | 0.00 | 0.00 | 43 | 1023.7 |
| 20260831044617 | 71 | 325 | 0.0 | 1.0 | 0.00 | 0.00 | 0.00 | 43 | 1023.7 |
| 20260831044041 | 71 | 0 | 0.0 | 1.0 | 0.00 | 0.00 | 0.00 | 43 | 1023.7 |
| 20260831043541 | 72 | 0 | 0.0 | 1.0 | 0.00 | 0.00 | 0.00 | 42 | 1023.7 |
| 20260831043051 | 72 | 0 | 0.0 | 1.0 | 0.00 | 0.00 | 0.00 | 42 | 1023.7 |
| 20260831042542 | 72 | 0 | 0.0 | 2.0 | 0.00 | 0.00 | 0.00 | 42 | 1023.7 |
| 20260831042041 | 73 | 0 | 0.0 | 3.0 | 0.00 | 0.00 | 0.00 | 42 | 1023.7 |
| 20260831041603 | 73 | 325 | 1.0 | 3.0 | 0.00 | 0.00 | 0.00 | 41 | 1023.8 |
| 20260831041042 | 73 | 325 | 1.0 | 3.0 | 0.00 | 0.00 | 0.00 | 41 | 1023.7 |
| 20260831040542 | 73 | 325 | 0.0 | 3.0 | 0.00 | 0.00 | 0.00 | 40 | 1023.7 |
| 20260831040056 | 74 | 0 | 0.0 | 4.0 | 0.00 | 0.00 | 0.00 | 39 | 1023.7 |
| 20260831035541 | 74 | 325 | 0.0 | 4.0 | 0.00 | 0.00 | 0.00 | 39 | 1023.7 |
| 20260831035041 | 74 | 325 | 2.0 | 5.0 | 0.00 | 0.00 | 0.00 | 39 | 1023.8 |
| 20260831034554 | 74 | 325 | 3.0 | 6.0 | 0.00 | 0.00 | 0.00 | 39 | 1023.7 |
| 20260831034041 | 74 | 300 | 3.0 | 6.0 | 0.00 | 0.00 | 0.00 | 39 | 1023.7 |
| 20260831033542 | 75 | 34 | 4.0 | 6.0 | 0.00 | 0.00 | 0.00 | 38 | 1023.5 |
| 20260831033055 | 75 | 67 | 3.0 | 5.0 | 0.00 | 0.00 | 0.00 | 38 | 1023.7 |
| 20260831032544 | 75 | 67 | 3.0 | 5.0 | 0.00 | 0.00 | 0.00 | 38 | 1023.6 |
| 20260831032042 | 75 | 67 | 3.0 | 5.0 | 0.00 | 0.00 | 0.00 | 38 | 1023.4 |
| 20260831031556 | 75 | 67 | 2.0 | 6.0 | 0.00 | 0.00 | 0.00 | 38 | 1023.3 |
| 20260831031042 | 76 | 55 | 3.0 | 7.0 | 0.00 | 0.00 | 0.00 | 37 | 1023.1 |
| 20260831030544 | 76 | 26 | 3.0 | 7.0 | 0.00 | 0.00 | 0.00 | 37 | 1023.0 |
| 20260831030059 | 76 | 24 | 4.0 | 6.0 | 0.00 | 0.00 | 0.00 | 37 | 1022.9 |
| 20260831025542 | 76 | 33 | 4.0 | 6.0 | 0.00 | 0.00 | 0.00 | 37 | 1022.9 |
| 20260831025042 | 76 | 44 | 4.0 | 5.0 | 0.00 | 0.00 | 0.00 | 37 | 1022.9 |
| 20260831024610 | 76 | 34 | 3.0 | 5.0 | 0.00 | 0.00 | 0.00 | 37 | 1022.9 |
| 20260831024042 | 76 | 14 | 2.0 | 5.0 | 0.00 | 0.00 | 0.00 | 37 | 1022.8 |
| 20260831023541 | 76 | 31 | 3.0 | 7.0 | 0.00 | 0.00 | 0.00 | 37 | 1022.8 |
| 20260831023050 | 76 | 18 | 3.0 | 8.0 | 0.00 | 0.00 | 0.00 | 36 | 1022.7 |
| 20260831022541 | 77 | 36 | 4.0 | 8.0 | 0.00 | 0.00 | 0.00 | 36 | 1022.7 |
| 20260831022043 | 77 | 15 | 3.0 | 5.0 | 0.00 | 0.00 | 0.00 | 36 | 1022.7 |
| 20260831021548 | 77 | 15 | 3.0 | 5.0 | 0.00 | 0.00 | 0.00 | 36 | 1022.7 |
| 20260831021041 | 77 | 32 | 3.0 | 5.0 | 0.00 | 0.00 | 0.00 | 35 | 1022.6 |
| 20260831020542 | 77 | 32 | 3.0 | 5.0 | 0.00 | 0.00 | 0.00 | 35 | 1022.6 |
| 20260831020107 | 78 | 32 | 3.0 | 5.0 | 0.00 | 0.00 | 0.00 | 35 | 1022.5 |
| 20260831015541 | 78 | 32 | 2.0 | 4.0 | 0.00 | 0.00 | 0.00 | 35 | 1022.4 |
| 20260831015041 | 78 | 32 | 3.0 | 4.0 | 0.00 | 0.00 | 0.00 | 35 | 1022.4 |
| 20260831014603 | 79 | 24 | 3.0 | 4.0 | 0.00 | 0.00 | 0.00 | 34 | 1022.3 |
| 20260831014041 | 79 | 5 | 2.0 | 4.0 | 0.00 | 0.00 | 0.00 | 34 | 1022.3 |
| 20260831013541 | 80 | 5 | 1.0 | 6.0 | 0.00 | 0.00 | 0.00 | 33 | 1022.4 |
| 20260831013058 | 80 | 332 | 2.0 | 6.0 | 0.00 | 0.00 | 0.00 | 33 | 1022.4 |
| 20260831012541 | 81 | 337 | 4.0 | 8.0 | 0.00 | 0.00 | 0.00 | 32 | 1022.3 |
| 20260831012040 | 81 | 327 | 4.0 | 8.0 | 0.00 | 0.00 | 0.00 | 32 | 1022.3 |
| 20260831011610 | 81 | 331 | 3.0 | 6.0 | 0.00 | 0.00 | 0.00 | 32 | 1022.3 |
| 20260831011041 | 81 | 325 | 2.0 | 9.0 | 0.00 | 0.00 | 0.00 | 31 | 1022.3 |
| 20260831010541 | 82 | 352 | 2.0 | 11.0 | 0.00 | 0.00 | 0.00 | 31 | 1022.2 |
| 20260831010057 | 82 | 324 | 5.0 | 11.0 | 0.00 | 0.00 | 0.00 | 31 | 1022.3 |
| 20260831005542 | 83 | 355 | 6.0 | 11.0 | 0.00 | 0.00 | 0.00 | 30 | 1022.3 |
| 20260831005042 | 84 | 350 | 2.0 | 8.0 | 0.00 | 0.00 | 0.00 | 30 | 1022.4 |
| 20260831004603 | 84 | 342 | 2.0 | 8.0 | 0.00 | 0.00 | 0.00 | 29 | 1022.4 |
| 20260831004041 | 85 | 325 | 4.0 | 8.0 | 0.00 | 0.00 | 0.00 | 29 | 1022.4 |
| 20260831003541 | 85 | 337 | 4.0 | 8.0 | 0.00 | 0.00 | 0.00 | 28 | 1022.4 |
| 20260831003104 | 86 | 327 | 3.0 | 8.0 | 0.00 | 0.00 | 0.00 | 28 | 1022.4 |
| 20260831002541 | 86 | 325 | 1.0 | 7.0 | 0.00 | 0.00 | 0.00 | 28 | 1022.4 |
| 20260831002042 | 86 | 273 | 3.0 | 7.0 | 0.00 | 0.00 | 0.00 | 28 | 1022.5 |
| 20260831001601 | 86 | 309 | 0.0 | 10.0 | 0.00 | 0.00 | 0.00 | 28 | 1022.6 |
| 20260831001042 | 86 | 315 | 4.0 | 11.0 | 0.00 | 0.00 | 0.00 | 28 | 1022.5 |
| 20260831000541 | 87 | 16 | 5.0 | 11.0 | 0.00 | 0.00 | 0.00 | 27 | 1022.6 |
| 20260831000105 | 88 | 318 | 4.0 | 10.0 | 0.00 | 0.00 | 0.00 | 27 | 1022.5 |
| 20260830235542 | 88 | 28 | 1.0 | 5.0 | 0.00 | 0.00 | 0.00 | 27 | 1022.4 |
| 20260830235044 | 88 | 0 | 1.0 | 5.0 | 0.00 | 0.00 | 0.00 | 27 | 1022.5 |
| 20260830234612 | 89 | 60 | 2.0 | 5.0 | 0.00 | 0.00 | 0.00 | 27 | 1022.5 |
| 20260830234042 | 89 | 111 | 1.0 | 12.0 | 0.00 | 0.00 | 0.00 | 26 | 1022.5 |
| 20260830233541 | 89 | 196 | 2.0 | 12.0 | 0.00 | 0.00 | 0.00 | 27 | 1022.5 |
| 20260830233058 | 89 | 306 | 4.0 | 12.0 | 0.00 | 0.00 | 0.00 | 27 | 1022.5 |
| 20260830232542 | 88 | 289 | 0.0 | 9.0 | 0.00 | 0.00 | 0.00 | 26 | 1022.4 |
| 20260830232042 | 88 | 300 | 2.0 | 10.0 | 0.00 | 0.00 | 0.00 | 27 | 1022.4 |
| 20260830231606 | 88 | 292 | 5.0 | 12.0 | 0.00 | 0.00 | 0.00 | 27 | 1022.4 |
| 20260830231041 | 88 | 290 | 4.0 | 12.0 | 0.00 | 0.00 | 0.00 | 29 | 1022.5 |
| 20260830230542 | 88 | 333 | 8.0 | 12.0 | 0.00 | 0.00 | 0.00 | 28 | 1022.5 |
| 20260830230057 | 88 | 318 | 4.0 | 7.0 | 0.00 | 0.00 | 0.00 | 28 | 1022.5 |
| 20260830225541 | 88 | 98 | 1.0 | 7.0 | 0.00 | 0.00 | 0.00 | 28 | 1022.5 |
| 20260830225043 | 87 | 63 | 3.0 | 7.0 | 0.00 | 0.00 | 0.00 | 29 | 1022.6 |
| 20260830224557 | 86 | 40 | 1.0 | 6.0 | 0.00 | 0.00 | 0.00 | 29 | 1022.7 |
| 20260830224042 | 85 | 265 | 2.0 | 11.0 | 0.00 | 0.00 | 0.00 | 31 | 1022.7 |
| 20260830223542 | 85 | 279 | 5.0 | 11.0 | 0.00 | 0.00 | 0.00 | 31 | 1022.7 |
| 20260830223057 | 84 | 338 | 3.0 | 10.0 | 0.00 | 0.00 | 0.00 | 32 | 1022.8 |
| 20260830222541 | 83 | 281 | 5.0 | 11.0 | 0.00 | 0.00 | 0.00 | 32 | 1022.9 |
| 20260830222043 | 82 | 315 | 5.0 | 11.0 | 0.00 | 0.00 | 0.00 | 34 | 1022.9 |
| 20260830221552 | 82 | 16 | 5.0 | 11.0 | 0.00 | 0.00 | 0.00 | 34 | 1023.0 |
| 20260830221043 | 82 | 311 | 6.0 | 13.0 | 0.00 | 0.00 | 0.00 | 34 | 1023.0 |
| 20260830220541 | 82 | 305 | 6.0 | 13.0 | 0.00 | 0.00 | 0.00 | 34 | 1023.0 |
| 20260830220053 | 82 | 334 | 5.0 | 14.0 | 0.00 | 0.00 | 0.00 | 35 | 1023.1 |
| 20260830215545 | 82 | 302 | 6.0 | 14.0 | 0.00 | 0.00 | 0.00 | 35 | 1023.1 |
| 20260830215042 | 82 | 338 | 5.0 | 12.0 | 0.00 | 0.00 | 0.00 | 35 | 1023.1 |
| 20260830214605 | 82 | 326 | 6.0 | 16.0 | 0.00 | 0.00 | 0.00 | 35 | 1023.1 |
| 20260830214044 | 83 | 277 | 9.0 | 16.0 | 0.00 | 0.00 | 0.00 | 34 | 1023.1 |
| 20260830213540 | 84 | 319 | 7.0 | 12.0 | 0.00 | 0.00 | 0.00 | 34 | 1023.2 |
| 20260830213055 | 84 | 343 | 2.0 | 5.0 | 0.00 | 0.00 | 0.00 | 33 | 1023.3 |
| 20260830212541 | 84 | 0 | 1.0 | 13.0 | 0.00 | 0.00 | 0.00 | 33 | 1023.2 |
| 20260830212042 | 84 | 324 | 3.0 | 13.0 | 0.00 | 0.00 | 0.00 | 33 | 1023.3 |
| 20260830211607 | 84 | 315 | 6.0 | 16.0 | 0.00 | 0.00 | 0.00 | 33 | 1023.4 |
| 20260830211042 | 84 | 308 | 6.0 | 16.0 | 0.00 | 0.00 | 0.00 | 33 | 1023.4 |
| 20260830210542 | 85 | 304 | 5.0 | 12.0 | 0.00 | 0.00 | 0.00 | 32 | 1023.5 |
| 20260830210058 | 86 | 242 | 1.0 | 12.0 | 0.00 | 0.00 | 0.00 | 30 | 1023.5 |
| 20260830205541 | 86 | 229 | 3.0 | 12.0 | 0.00 | 0.00 | 0.00 | 30 | 1023.4 |
| 20260830205042 | 86 | 316 | 5.0 | 12.0 | 0.00 | 0.00 | 0.00 | 30 | 1023.5 |
| 20260830204553 | 87 | 264 | 6.0 | 12.0 | 0.00 | 0.00 | 0.00 | 30 | 1023.5 |
| 20260830204044 | 88 | 298 | 5.0 | 12.0 | 0.00 | 0.00 | 0.00 | 30 | 1023.5 |
| 20260830203542 | 89 | 5 | 3.0 | 11.0 | 0.00 | 0.00 | 0.00 | 29 | 1023.6 |
| 20260830203054 | 91 | 335 | 3.0 | 6.0 | 0.00 | 0.00 | 0.00 | 27 | 1023.7 |
| 20260830202542 | 91 | 0 | 1.0 | 4.0 | 0.00 | 0.00 | 0.00 | 27 | 1024.0 |
| 20260830202042 | 91 | 30 | 1.0 | 9.0 | 0.00 | 0.00 | 0.00 | 27 | 1024.0 |
| 20260830201613 | 91 | 268 | 4.0 | 9.0 | 0.00 | 0.00 | 0.00 | 27 | 1024.1 |
| 20260830201042 | 91 | 290 | 4.0 | 10.0 | 0.00 | 0.00 | 0.00 | 27 | 1024.1 |
| 20260830200540 | 89 | 178 | 3.0 | 10.0 | 0.00 | 0.00 | 0.00 | 29 | 1024.2 |
| 20260830200052 | 88 | 70 | 3.0 | 10.0 | 0.00 | 0.00 | 0.00 | 30 | 1024.3 |
| 20260830195541 | 88 | 309 | 2.0 | 10.0 | 0.00 | 0.00 | 0.00 | 30 | 1024.3 |
| 20260830195041 | 87 | 26 | 5.0 | 10.0 | 0.00 | 0.00 | 0.00 | 31 | 1024.5 |
| 20260830194551 | 87 | 293 | 2.0 | 11.0 | 0.00 | 0.00 | 0.00 | 31 | 1024.6 |
| 20260830194041 | 86 | 313 | 2.0 | 14.0 | 0.00 | 0.00 | 0.00 | 31 | 1024.7 |
| 20260830193541 | 86 | 309 | 5.0 | 14.0 | 0.00 | 0.00 | 0.00 | 31 | 1024.7 |
| 20260830193055 | 86 | 300 | 9.0 | 14.0 | 0.00 | 0.00 | 0.00 | 31 | 1024.7 |
| 20260830192541 | 86 | 329 | 6.0 | 14.0 | 0.00 | 0.00 | 0.00 | 32 | 1024.7 |
| 20260830192041 | 86 | 342 | 4.0 | 12.0 | 0.00 | 0.00 | 0.00 | 32 | 1024.6 |
| 20260830191554 | 86 | 311 | 6.0 | 16.0 | 0.00 | 0.00 | 0.00 | 32 | 1024.7 |
| 20260830191041 | 85 | 282 | 6.0 | 16.0 | 0.00 | 0.00 | 0.00 | 32 | 1024.7 |
| 20260830190541 | 85 | 289 | 8.0 | 16.0 | 0.00 | 0.00 | 0.00 | 32 | 1024.7 |
| 20260830190051 | 84 | 302 | 1.0 | 11.0 | 0.00 | 0.00 | 0.00 | 34 | 1024.6 |
| 20260830185542 | 83 | 352 | 2.0 | 12.0 | 0.00 | 0.00 | 0.00 | 34 | 1024.7 |
| 20260830185041 | 83 | 5 | 5.0 | 16.0 | 0.00 | 0.00 | 0.00 | 34 | 1024.7 |
| 20260830184549 | 83 | 317 | 9.0 | 16.0 | 0.00 | 0.00 | 0.00 | 34 | 1024.9 |
| 20260830184043 | 84 | 323 | 7.0 | 15.0 | 0.00 | 0.00 | 0.00 | 33 | 1025.0 |
| 20260830183543 | 84 | 300 | 3.0 | 9.0 | 0.00 | 0.00 | 0.00 | 33 | 1025.1 |
| 20260830183053 | 84 | 242 | 4.0 | 13.0 | 0.00 | 0.00 | 0.00 | 34 | 1025.1 |
| 20260830182542 | 83 | 284 | 4.0 | 16.0 | 0.00 | 0.00 | 0.00 | 35 | 1025.2 |
| 20260830182042 | 82 | 303 | 6.0 | 16.0 | 0.00 | 0.00 | 0.00 | 36 | 1025.3 |
| 20260830181606 | 82 | 296 | 9.0 | 16.0 | 0.00 | 0.00 | 0.00 | 36 | 1025.3 |
| 20260830181045 | 82 | 319 | 6.0 | 12.0 | 0.00 | 0.00 | 0.00 | 36 | 1025.4 |
| 20260830180542 | 83 | 30 | 5.0 | 11.0 | 0.00 | 0.00 | 0.00 | 35 | 1025.4 |
| 20260830180100 | 84 | 320 | 4.0 | 10.0 | 0.00 | 0.00 | 0.00 | 35 | 1025.5 |
| 20260830175541 | 84 | 278 | 2.0 | 10.0 | 0.00 | 0.00 | 0.00 | 35 | 1025.5 |
| 20260830175041 | 84 | 311 | 4.0 | 10.0 | 0.00 | 0.00 | 0.00 | 34 | 1025.7 |
| 20260830174549 | 83 | 248 | 3.0 | 11.0 | 0.00 | 0.00 | 0.00 | 34 | 1025.7 |
| 20260830174040 | 83 | 269 | 4.0 | 11.0 | 0.00 | 0.00 | 0.00 | 34 | 1025.9 |
| 20260830173540 | 83 | 291 | 5.0 | 10.0 | 0.00 | 0.00 | 0.00 | 34 | 1026.0 |
| 20260830173109 | 82 | 0 | 3.0 | 8.0 | 0.00 | 0.00 | 0.00 | 35 | 1026.0 |
| 20260830172541 | 82 | 209 | 2.0 | 9.0 | 0.00 | 0.00 | 0.00 | 36 | 1026.1 |
| 20260830172042 | 81 | 223 | 2.0 | 9.0 | 0.00 | 0.00 | 0.00 | 37 | 1026.2 |
| 20260830171602 | 80 | 338 | 2.0 | 9.0 | 0.00 | 0.00 | 0.00 | 39 | 1026.4 |
| 20260830171043 | 79 | 34 | 1.0 | 7.0 | 0.00 | 0.00 | 0.00 | 39 | 1026.3 |
| 20260830170542 | 79 | 339 | 3.0 | 7.0 | 0.00 | 0.00 | 0.00 | 39 | 1026.3 |
| 20260830170053 | 79 | 347 | 3.0 | 6.0 | 0.00 | 0.00 | 0.00 | 39 | 1026.4 |
| 20260830165541 | 78 | 301 | 1.0 | 7.0 | 0.00 | 0.00 | 0.00 | 43 | 1026.5 |
| 20260830165043 | 78 | 30 | 1.0 | 7.0 | 0.00 | 0.00 | 0.00 | 42 | 1026.6 |
| 20260830164554 | 78 | 284 | 3.0 | 8.0 | 0.00 | 0.00 | 0.00 | 42 | 1026.7 |
| 20260830164042 | 78 | 218 | 4.0 | 8.0 | 0.00 | 0.00 | 0.00 | 45 | 1026.8 |
| 20260830163542 | 77 | 314 | 3.0 | 10.0 | 0.00 | 0.00 | 0.00 | 46 | 1026.8 |
| 20260830163100 | 77 | 211 | 5.0 | 11.0 | 0.00 | 0.00 | 0.00 | 47 | 1026.9 |
| 20260830162542 | 77 | 285 | 5.0 | 11.0 | 0.00 | 0.00 | 0.00 | 46 | 1026.9 |
| 20260830162042 | 77 | 296 | 5.0 | 10.0 | 0.00 | 0.00 | 0.00 | 47 | 1026.8 |
| 20260830161553 | 76 | 254 | 5.0 | 11.0 | 0.00 | 0.00 | 0.00 | 47 | 1026.8 |
| 20260830161041 | 76 | 242 | 5.0 | 11.0 | 0.00 | 0.00 | 0.00 | 47 | 1026.7 |
| 20260830160541 | 76 | 256 | 4.0 | 9.0 | 0.00 | 0.00 | 0.00 | 50 | 1026.6 |
| 20260830160052 | 76 | 270 | 2.0 | 10.0 | 0.00 | 0.00 | 0.00 | 50 | 1026.6 |
| 20260830155541 | 75 | 274 | 3.0 | 10.0 | 0.00 | 0.00 | 0.00 | 49 | 1026.7 |
| 20260830155041 | 75 | 291 | 3.0 | 8.0 | 0.00 | 0.00 | 0.00 | 51 | 1026.6 |
| 20260830154558 | 75 | 235 | 3.0 | 9.0 | 0.00 | 0.00 | 0.00 | 52 | 1026.5 |
| 20260830154044 | 74 | 300 | 3.0 | 9.0 | 0.00 | 0.00 | 0.00 | 50 | 1026.4 |
| 20260830153541 | 74 | 270 | 4.0 | 9.0 | 0.00 | 0.00 | 0.00 | 51 | 1026.4 |
| 20260830153055 | 74 | 305 | 1.0 | 10.0 | 0.00 | 0.00 | 0.00 | 52 | 1026.3 |
| 20260830152541 | 73 | 284 | 3.0 | 10.0 | 0.00 | 0.00 | 0.00 | 53 | 1026.4 |
| 20260830152041 | 73 | 351 | 1.0 | 8.0 | 0.00 | 0.00 | 0.00 | 54 | 1026.3 |
| 20260830151616 | 72 | 0 | 3.0 | 8.0 | 0.00 | 0.00 | 0.00 | 55 | 1026.3 |
| 20260830151041 | 71 | 327 | 1.0 | 8.0 | 0.00 | 0.00 | 0.00 | 58 | 1026.1 |
| 20260830150546 | 70 | 45 | 2.0 | 8.0 | 0.00 | 0.00 | 0.00 | 58 | 1026.0 |
| 20260830145541 | 69 | 32 | 4.0 | 9.0 | 0.00 | 0.00 | 0.00 | 61 | 1026.0 |
| 20260830145042 | 68 | 355 | 3.0 | 7.0 | 0.00 | 0.00 | 0.00 | 64 | 1026.3 |
| 20260830144555 | 68 | 24 | 2.0 | 7.0 | 0.00 | 0.00 | 0.00 | 66 | 1026.3 |
| 20260830144045 | 67 | 0 | 4.0 | 7.0 | 0.00 | 0.00 | 0.00 | 67 | 1026.4 |
| 20260830143541 | 66 | 43 | 2.0 | 6.0 | 0.00 | 0.00 | 0.00 | 68 | 1026.4 |
| 20260830143107 | 66 | 338 | 4.0 | 6.0 | 0.00 | 0.00 | 0.00 | 68 | 1026.4 |
| 20260830142543 | 66 | 341 | 4.0 | 9.0 | 0.00 | 0.00 | 0.00 | 69 | 1026.4 |
| 20260830142041 | 65 | 15 | 4.0 | 9.0 | 0.00 | 0.00 | 0.00 | 69 | 1026.4 |
| 20260830141559 | 65 | 15 | 5.0 | 9.0 | 0.00 | 0.00 | 0.00 | 70 | 1026.4 |
| 20260830141045 | 65 | 348 | 4.0 | 9.0 | 0.00 | 0.00 | 0.00 | 70 | 1026.4 |